Linden, NJ

6:10 AM EDT on July 28, 2017 (GMT -0400)
Linden

Weather History for KLDJ - December, 2012

Change the Weather History Date:

Sunday, December 9, 2012

  Actual Average (KEWR) Record (KEWR)
Temperature  
Mean Temperature 47 °F -  
Max Temperature 49 °F 46 °F 68 °F (1966)
Min Temperature 44 °F 31 °F 12 °F (1934)
Degree Days  
Heating Degree Days 18    
Moisture  
Dew Point 43 °F    
Average Humidity 89    
Maximum Humidity 97    
Minimum Humidity 72    
Precipitation  
Precipitation 0.15 in - - ()
Sea Level Pressure  
Sea Level Pressure 30.15 in    
Wind  
Wind Speed 5 mph (NE)    
Max Wind Speed 13 mph    
Max Gust Speed 20 mph    
Visibility 6 miles    
Events Fog , Rain    
Averages and records for this station are not official NWS values.
T = Trace of Precipitation, MM = Missing Value Source: NWS Daily Summary

Daily Weather History Graph

Daily Weather History Graph

Search for Another Location

Airport or City:

Trip Planner

Search our weather history database for the weather conditions in past years. The results will help you decide how hot, cold, wet, or windy it might be!

Date:

Astronomy

Dec. 09, 2012 Rise Set
Actual Time 7:09 AM EST 4:29 PM EST
Civil Twilight 6:38 AM EST 5:00 PM EST
Nautical Twilight 6:04 AM EST 5:34 PM EST
Astronomical Twilight 5:31 AM EST 6:07 PM EST
Moon 2:38 AM EST (12/9) 1:35 PM EST (12/9)
Length of Visible Light 10h 21m
Length of Day
9h 20m
Waning Crescent, 19% of the Moon is Illuminated
Dec 9
Waning Crescent
Dec 13
New
Dec 20
First Quarter
Dec 28
Full
Jan 4
Last Quarter

Hourly Weather History & Observations

Time (EST) Temp. Windchill Dew Point Humidity Pressure Visibility Wind Dir Wind Speed Gust Speed Precip Events Conditions
12:15 AM 50.4 °F - 49.1 °F 95% 30.01 in 2.5 mi WSW 4.6 mph - N/A Rain Light Rain
12:35 AM 50.4 °F - 49.1 °F 95% 30.01 in 3.0 mi Calm Calm - 0.01 in   Light Drizzle
12:55 AM 49.6 °F - 48.2 °F 95% 30.01 in 3.0 mi WNW 3.5 mph - 0.01 in   Light Drizzle
1:15 AM 49.5 °F - 48.2 °F 95% 30.02 in 2.5 mi Calm Calm - N/A   Scattered Clouds
1:35 AM 49.6 °F - 48.4 °F 95% 30.03 in 2.5 mi Calm Calm - N/A   Mostly Cloudy
1:55 AM 48.4 °F - 46.9 °F 95% 30.04 in 2.5 mi Calm Calm - N/A   Scattered Clouds
2:15 AM 48.7 °F - 47.7 °F 96% 30.05 in 2.5 mi Calm Calm - N/A   Mostly Cloudy
2:35 AM 48.2 °F - 47.3 °F 97% 30.06 in 2.0 mi Calm Calm - N/A   Mostly Cloudy
2:55 AM 47.7 °F - 46.6 °F 96% 30.06 in 1.8 mi Calm Calm - N/A   Scattered Clouds
3:15 AM 46.9 °F - 45.9 °F 96% 30.07 in 0.5 mi Calm Calm - N/A Fog Fog
3:55 AM 46.4 °F - 45.5 °F 97% 30.08 in 0.2 mi Calm Calm - N/A Fog Fog
4:15 AM 45.9 °F - 45.1 °F 97% 30.09 in 0.5 mi Calm Calm - N/A Fog Fog
4:35 AM 45.5 °F - 44.8 °F 97% 30.09 in 0.8 mi Calm Calm - N/A   Overcast
4:55 AM 45.5 °F - 44.6 °F 97% 30.10 in 0.5 mi Calm Calm - N/A Fog Fog
5:15 AM 45.3 °F - 44.6 °F 97% 30.12 in 2.0 mi Calm Calm - N/A   Mostly Cloudy
5:35 AM 45.5 °F 44.2 °F 44.6 °F 97% 30.13 in 3.0 mi WNW 3.5 mph - N/A   Mostly Cloudy
5:55 AM 46.0 °F 43.9 °F 45.1 °F 97% 30.13 in 5.0 mi NNW 4.6 mph - N/A   Mostly Cloudy
6:15 AM 47.3 °F - 46.4 °F 97% 30.15 in 10.0 mi North 5.8 mph - N/A   Mostly Cloudy
6:35 AM 47.7 °F - 45.7 °F 93% 30.17 in 10.0 mi North 4.6 mph - N/A   Clear
6:55 AM 47.5 °F - 45.5 °F 93% 30.17 in 10.0 mi North 4.6 mph - N/A   Scattered Clouds
7:15 AM 47.7 °F - 45.7 °F 93% 30.19 in 10.0 mi NNE 3.5 mph - N/A   Mostly Cloudy
7:35 AM 48.2 °F - 45.7 °F 91% 30.19 in 10.0 mi NNE 3.5 mph - N/A   Overcast
7:55 AM 48.4 °F - 45.5 °F 90% 30.20 in 10.0 mi NNE 4.6 mph - N/A   Overcast
8:15 AM 48.9 °F - 45.0 °F 86% 30.19 in 10.0 mi NNE 5.8 mph - N/A   Scattered Clouds
8:35 AM 49.6 °F - 45.0 °F 84% 30.22 in 10.0 mi North 6.9 mph - N/A   Mostly Cloudy
8:55 AM 49.5 °F - 45.0 °F 84% 30.23 in 10.0 mi NE 8.1 mph - N/A   Overcast
9:15 AM 49.1 °F - 44.6 °F 84% 30.23 in 10.0 mi NE 10.4 mph - N/A   Overcast
9:35 AM 48.4 °F - 43.2 °F 82% 30.24 in 10.0 mi NNE 12.7 mph 19.6 mph N/A   Overcast
9:55 AM 47.8 °F - 43.7 °F 86% 30.25 in 7.0 mi NE 6.9 mph - N/A Rain Light Rain
10:15 AM 47.1 °F - 43.3 °F 87% 30.25 in 10.0 mi NE 10.4 mph - N/A   Light Drizzle
10:35 AM 46.4 °F 41.5 °F 40.3 °F 79% 30.25 in 10.0 mi NE 10.4 mph - N/A   Unknown
10:55 AM 45.5 °F 40.3 °F 39.7 °F 80% 30.24 in 10.0 mi NNE 10.4 mph 17.3 mph N/A Rain Rain
11:15 AM 45.0 °F 40.6 °F 39.7 °F 82% 30.25 in 10.0 mi NNE 8.1 mph - N/A Rain Light Rain
11:35 AM 44.8 °F 42.4 °F 40.1 °F 84% 30.24 in 7.0 mi NNE 4.6 mph - 0.02 in Rain Rain
11:55 AM 45.1 °F 40.8 °F 40.3 °F 83% 30.24 in 7.0 mi NNE 8.1 mph - 0.03 in Rain Rain
12:15 PM 45.0 °F 40.1 °F 39.4 °F 81% 30.23 in 10.0 mi NNE 9.2 mph - N/A   Drizzle
12:35 PM 45.1 °F 42.0 °F 39.2 °F 80% 30.22 in 10.0 mi NNE 5.8 mph - N/A   Light Drizzle
1:15 PM 45.5 °F 41.8 °F 37.8 °F 74% 30.21 in 10.0 mi NE 6.9 mph - N/A   Light Drizzle
1:35 PM 45.5 °F 41.8 °F 38.3 °F 76% 30.20 in 10.0 mi NE 6.9 mph - N/A Rain Light Rain
1:55 PM 45.5 °F 42.5 °F 37.9 °F 75% 30.20 in 10.0 mi NE 5.8 mph - N/A Rain Light Rain
2:15 PM 45.5 °F 41.3 °F 37.0 °F 72% 30.20 in 10.0 mi NNE 8.1 mph - N/A Rain Light Rain
2:35 PM 45.0 °F 41.2 °F 36.9 °F 73% 30.20 in 10.0 mi NE 6.9 mph - 0.01 in   Drizzle
2:55 PM 45.5 °F 41.8 °F 37.6 °F 74% 30.20 in 10.0 mi ENE 6.9 mph - 0.01 in   Overcast
3:15 PM 45.1 °F 42.0 °F 37.8 °F 75% 30.20 in 10.0 mi ENE 5.8 mph - N/A Rain Light Rain
3:35 PM 45.5 °F 44.2 °F 38.3 °F 76% 30.20 in 10.0 mi ENE 3.5 mph - N/A   Overcast
3:55 PM 45.1 °F 41.4 °F 38.3 °F 77% 30.21 in 10.0 mi ENE 6.9 mph - N/A   Light Drizzle
4:15 PM 44.8 °F 39.4 °F 38.8 °F 80% 30.21 in 7.0 mi ENE 10.4 mph - N/A   Light Drizzle
4:35 PM 44.4 °F 40.5 °F 39.6 °F 83% 30.21 in 7.0 mi ENE 6.9 mph - 0.01 in Rain Light Rain
4:55 PM 44.2 °F 39.7 °F 40.1 °F 85% 30.21 in 7.0 mi ENE 8.1 mph - 0.03 in Rain Rain
5:15 PM 44.4 °F 39.0 °F 40.1 °F 85% 30.20 in 10.0 mi East 10.4 mph - N/A   Light Drizzle
5:35 PM 44.6 °F 38.8 °F 40.5 °F 85% 30.20 in 10.0 mi ENE 11.5 mph - N/A   Overcast
5:55 PM 44.8 °F 39.9 °F 41.2 °F 87% 30.19 in 10.0 mi ENE 9.2 mph - N/A   Overcast
6:15 PM 44.8 °F 39.9 °F 41.7 °F 89% 30.19 in 4.0 mi ENE 9.2 mph - N/A   Overcast
6:35 PM 45.0 °F 40.6 °F 42.4 °F 91% 30.18 in 3.0 mi ENE 8.1 mph - N/A Rain Light Rain
6:55 PM 45.1 °F 39.5 °F 43.0 °F 92% 30.18 in 5.0 mi ENE 11.5 mph - N/A   Light Drizzle
7:15 PM 45.1 °F 40.8 °F 43.2 °F 93% 30.18 in 2.5 mi ENE 8.1 mph - N/A Rain Light Rain
7:35 PM 45.5 °F 39.6 °F 43.7 °F 93% 30.17 in 4.0 mi ENE 12.7 mph - 0.01 in Rain Light Rain
7:55 PM 45.5 °F 39.9 °F 43.7 °F 93% 30.15 in 3.0 mi ENE 11.5 mph - 0.01 in   Light Drizzle
8:15 PM 45.5 °F 40.3 °F 43.9 °F 94% 30.15 in 4.0 mi ENE 10.4 mph - N/A   Light Drizzle
8:35 PM 45.7 °F 40.6 °F 44.1 °F 94% 30.13 in 5.0 mi ENE 10.4 mph - 0.01 in Rain Light Rain
8:55 PM 45.9 °F 40.4 °F 44.2 °F 94% 30.12 in 7.0 mi ENE 11.5 mph - 0.01 in   Light Drizzle
9:15 PM 46.0 °F 41.9 °F 44.6 °F 95% 30.10 in 7.0 mi ENE 8.1 mph - N/A   Light Drizzle
9:35 PM 46.4 °F 41.1 °F 44.8 °F 94% 30.09 in 5.0 mi ENE 11.5 mph - 0.01 in   Light Drizzle
9:55 PM 46.6 °F - 45.0 °F 94% 30.07 in 5.0 mi East 8.1 mph 16.1 mph 0.01 in   Light Drizzle
10:15 PM 46.8 °F - 45.5 °F 95% 30.08 in 3.0 mi NNE 4.6 mph - N/A   Drizzle
10:35 PM 46.8 °F - 45.1 °F 94% 30.05 in 3.0 mi East 9.2 mph - 0.01 in Rain Light Rain
10:55 PM 46.6 °F - 45.0 °F 94% 30.04 in 2.5 mi East 12.7 mph - 0.02 in Rain Rain
11:35 PM 46.9 °F - 45.5 °F 95% 30.03 in 5.0 mi NNE 4.6 mph - 0.02 in   Drizzle
11:55 PM 46.4 °F 43.5 °F 44.8 °F 94% 30.01 in 5.0 mi NNE 5.8 mph - 0.02 in   Drizzle